Regional Weather Roundup
Issued by NWS

Home | Current Version | Previous Version | Graphics & Text | Print | Product List | Glossary On
Versions: 1 2 3 4 5 6 7 8 9 10 11 12 13 14 15 16 17 18 19 20 21 22 23 24 25 26 27 28 29 30 31 32 33 34 35 36 37 38 39 40 41 42 43 44 45 46 47 48 49 50
000
ASUS43 KIND 060859
RWRIN

WEATHER ROUNDUP FOR INDIANA
NATIONAL WEATHER SERVICE INDIANAPOLIS IN
500 AM EDT MON JUL 06 2015

NOTE: "FAIR" INDICATES FEW OR NO CLOUDS BELOW 12,000 FEET WITH NO
SIGNIFICANT WEATHER AND/OR OBSTRUCTIONS TO VISIBILITY.

* - STATION DOES NOT REPORT WEATHER SUCH AS PRECIPITATION OR FOG.

+ - STATION NOT QUALITY CONTROLLED BY THE NATIONAL WEATHER SERVICE.
    USE DATA WITH CAUTION...ESPECIALLY DEWPOINT AND RELATIVE
    HUMIDITY OBSERVATIONS.

INZ001>003-010>013-019-020-061000-
NORTHWEST INDIANA

CITY           SKY/WX    TMP DP  RH WIND       PRES   REMARKS
KNOX *+        CLEAR     63  61  94 CALM      30.04S
MONTICELLO +   CLEAR     65  64  94 CALM      30.04S
RENSSELAER +   CLEAR     64  64 100 CALM      30.04S FOG

$$

LMZ046-743>745-061000-
SOUTHERN LAKE MICHIGAN

STATION/POSITION TIME  TEMP    WIND        PRES    WAVE
                       AIR SEA DIR/SP/G            HT
                 (UTC) (F)     (DEG/KT/KT) (MB)    (FT)
BURNS HARBOR     0800   69     190/  7/  9 1017.3R
MICHIGAN CITY    0800   69     150/  9/ 12   N/A
5NW MICH CITY    0800   68 66  180/  6/  8   N/A     1

$$

INZ004-005-014>016-021>024-061000-
NORTH CENTRAL INDIANA

CITY           SKY/WX    TMP DP  RH WIND       PRES   REMARKS
GOSHEN         CLEAR     60  58  92 CALM      30.06R
SOUTH BEND     CLEAR     64  59  83 CALM      30.06R

$$

INZ006>009-017-018-025>027-061000-
NORTHEAST INDIANA

CITY           SKY/WX    TMP DP  RH WIND       PRES   REMARKS
ANGOLA *+        N/A     61  57  88 CALM      30.07R
FORT WAYNE     CLEAR     61  58  90 CALM      30.08R

$$

INZ028-029-035-036-043>045-051>053-061000-
WEST CENTRAL INDIANA

CITY           SKY/WX    TMP DP  RH WIND       PRES   REMARKS
CRAWFORDSVL +  CLEAR     60  60  97 CALM      30.06R FOG
GREENCASTLE +    N/A     63  61  94 CALM      30.07R FOG
LAFAYETTE      CLEAR     64  62  93 E3        30.04S FOG
TERRE HAUTE    CLEAR     66  65  96 E5        30.04S FOG

$$

INZ030>032-037>040-046>048-054>057-064-065-061000-
CENTRAL INDIANA

CITY           SKY/WX    TMP DP  RH WIND       PRES   REMARKS
FRANKFORT +    CLEAR    N/A N/A N/A CALM      30.07S HAZE
GREENWOOD *+   CLEAR     61  59  94 CALM      30.06S
INDIANAPOLIS   CLEAR     66  61  84 E3        30.05R
-EAGLE CREEK   CLEAR     64  62  93 CALM      30.05S FOG
KOKOMO *+      CLEAR     64  59  82 SW3       30.06S
MT COMFORT *+    N/A     57 N/A N/A CALM      30.07R VSB 1/4
SHELBYVILLE    CLEAR     62  59  90 CALM      30.06R FOG

$$

INZ033-034-041-042-049-050-058-059-061000-
EAST CENTRAL INDIANA

CITY           SKY/WX    TMP DP  RH WIND       PRES   REMARKS
MUNCIE         CLEAR     62  59  90 CALM      30.08R FOG

$$

INZ060-061-067>069-081>083-085>088-061000-
SOUTHWEST INDIANA

CITY           SKY/WX    TMP DP  RH WIND       PRES   REMARKS
EVANSVILLE     CLEAR     70  68  93 CALM      30.04R FOG
HUNTINGBURG *+ MOCLDY    66  64  94 CALM      30.06R

$$

INZ062-063-066-070>080-084-089>092-061000-
SOUTH CENTRAL AND SOUTHEAST INDIANA

CITY           SKY/WX    TMP DP  RH WIND       PRES   REMARKS
BLOOMINGTON    CLEAR     63  62  97 CALM      30.06R FOG
MADISON *+     CLEAR     61  59  94 CALM      30.08R
SEYMOUR +      CLEAR     63  63 100 E3        30.06R FOG

$$



USA.gov is the U.S. government's official web portal to all federal, state and local government web resources and services.